Regional Weather Roundup
Issued by NWS

Home | Current Version | Previous Version | Text Only | Print | Product List | Glossary On
Versions: 1 2 3 4 5 6 7 8 9 10 11 12 13 14 15 16 17 18 19 20 21 22 23 24 25 26 27 28 29 30 31 32 33 34 35 36 37 38 39 40 41 42 43 44 45 46 47 48 49 50
547
ASUS44 KJAN 180410
RWRMS

MISSISSIPPI HOURLY WEATHER ROUNDUP
NATIONAL WEATHER SERVICE JACKSON MS
1100 PM CDT THU APR 17 2014

NOTE: "FAIR: INDICATES FEW OR NO CLOUDS BELOW 12,000 FEET WITH NO
SIGNIFICANT WEATHER AND/OR OBSTRUCTIONS TO VISIBILITY.

MSZ001>002-007>008-010>013-018>021-025>028-034>036-180500-
NORTHWEST MISSISSIPPI

CITY           SKY/WX    TMP DP  RH WIND       PRES   REMARKS
CLARKSDALE       N/A     57  50  77 CALM      30.22S
CLEVELAND      FAIR      58  53  83 NE5       30.19F
GREENWOOD      CLOUDY    57  51  80 E5        30.20S
GREENVILLE     MOCLDY    58  52  80 CALM      30.18F
GRENADA        FAIR      55  52  88 CALM      30.22S
OLIVE BRANCH   PTCLDY    55  43  62 CALM      30.22F
OXFORD         FAIR      54  48  82 CALM      30.23F
TUNICA         MOCLDY    59  46  63 E3        30.22F
$$

MSZ003>006-009-014>017-022>024-029>033-037>039-180500-
NORTHEAST MISSISSIPPI

CITY           SKY/WX    TMP DP  RH WIND       PRES   REMARKS
BELMONT        CLOUDY    58  49  73 CALM      30.22F
COLUMBUS AFB   CLOUDY    57  53  86 SE2       30.23R
CORINTH        CLOUDY    59  48  67 CALM      30.23F
GOLDN TRIANGLE CLOUDY    57  50  77 CALM      30.25R
STARKVILLE     CLOUDY    55  54  94 CALM      30.22R
TUPELO         CLOUDY    58  51  78 CALM      30.22F
$$

MSZ040-058-180500-
CENTRAL MISSISSIPPI

CITY           SKY/WX    TMP DP  RH WIND       PRES   REMARKS
JACKSON INTL   CLOUDY    59  53  80 E5        30.18F
JACKSON HAWKNS CLOUDY    62  51  67 E6        30.19F
MERIDIAN KEY   CLOUDY    59  51  75 E6        30.21R
MERIDIAN NAS   CLOUDY    58  51  78 E3        30.22R
RAYMOND        FAIR      55  52  88 CALM      30.19S
VICKSBURG      CLOUDY    62  55  77 CALM      30.19R
$$

MSZ059>079-180500-
SOUTH MISSISSIPPI

CITY           SKY/WX    TMP DP  RH WIND       PRES   REMARKS
BROOKHAVEN     CLOUDY    59  55  88 CALM      30.19S
COLUMBIA       CLOUDY    61  55  82 MISG      30.16S
HATTIESBURG    CLOUDY    62  54  74 NE3       30.19R
MCCOMB         CLOUDY    60  54  80 NE3       30.16S
NATCHEZ        CLOUDY    59  54  82 NE5       30.16S
PINE BELT      CLOUDY    59  52  77 NE3       30.19S
$$

MSZ080>082-180500-
COASTAL MISSISSIPPI

CITY           SKY/WX    TMP DP  RH WIND       PRES   REMARKS
BILOXI         CLOUDY    62  60  93 NE13      30.14S
PASCAGOULA     LGT RAIN  61  60  97 E10       30.14F FOG
GULFPORT       CLOUDY    65  59  81 NE8       30.14S
$$



USA.gov is the U.S. government's official web portal to all federal, state and local government web resources and services.